CDT,Max TemperatureF,Mean TemperatureF,Min TemperatureF,Max Dew PointF,MeanDew PointF,Min DewpointF,Max Humidity, Mean Humidity, Min Humidity, Max Sea Level PressureIn, Mean Sea Level PressureIn, Min Sea Level PressureIn, Max VisibilityMiles, Mean VisibilityMiles, Min VisibilityMiles, Max Wind SpeedMPH, Mean Wind SpeedMPH, Max Gust SpeedMPH,PrecipitationIn, CloudCover, Events, WindDirDegrees
2013-6-1,73,70,64,66,58,55,77,71,60,29.95,29.87,29.80,10,10,3,21,8,26,1.68,7,Thunderstorm,188
2013-6-2,69,63,57,55,52,48,77,67,56,30.03,29.97,29.89,10,10,6,7,3,,0.00,5,,289
2013-6-3,69,60,51,48,46,43,76,61,40,30.12,30.05,30.01,10,10,7,9,3,,0.00,5,,16
2013-6-4,75,60,46,55,49,39,82,61,46,30.12,30.07,30.02,10,9,4,9,3,,0.00,1,,58
2013-6-5,82,68,57,59,54,48,77,58,39,30.04,29.95,29.85,10,9,2,6,3,,0.00,2,,26
2013-6-6,80,72,64,59,55,54,73,56,39,29.86,29.83,29.80,10,9,4,7,2,,0.01,4,,342
2013-6-7,73,66,59,54,52,50,72,62,49,29.91,29.87,29.83,10,10,3,9,2,17,0.00,4,,2
2013-6-8,80,68,55,55,51,46,77,56,34,30.01,29.96,29.90,10,7,1,12,2,,0.00,2,,199
2013-6-9,82,71,60,61,54,50,73,58,37,30.00,29.92,29.83,10,9,0,13,3,20,0.02,6,Thunderstorm,159
2013-6-10,78,68,57,57,55,48,77,63,44,29.95,29.87,29.81,10,7,0,10,3,,0.11,6,,236
2013-6-11,91,73,55,66,59,46,77,58,43,30.02,29.95,29.89,10,7,0,13,3,17,0.00,1,,197
2013-6-12,93,82,71,68,65,63,73,55,41,30.00,29.89,29.77,10,10,3,23,9,31,0.00,1,,213
2013-6-13,84,74,64,64,56,52,73,51,37,30.00,29.89,29.76,10,10,10,16,9,21,0.00,3,,317
2013-6-14,80,76,60,54,52,52,72,43,37,30.11,30.05,29.96,10,10,6,8,2,,0.00,0,,16
2013-6-15,60,,60,50,50,50,68,68,68,30.12,30.03,29.96,10,10,8,15,3,20,0.00,1,,194
2013-6-16,,,,,,,,,,30.05,30.00,29.95,10,10,3,9,3,,0.05,3,,100
2013-6-17,87,76,64,64,59,54,73,62,43,30.01,29.94,29.89,10,8,0,14,2,29,0.11,3,Thunderstorm,79
2013-6-18,87,81,71,61,55,25,57,44,15,29.98,29.94,29.89,10,9,0,8,3,,0.00,1,,309
2013-6-19,86,76,64,63,57,27,73,52,15,30.09,30.04,29.98,10,8,0,7,4,,0.00,0,,43
2013-6-20,89,76,62,61,57,54,73,56,33,30.16,30.12,30.08,10,8,2,7,1,,0.00,1,,121
2013-6-21,93,80,66,72,63,55,78,59,40,30.17,30.12,30.06,10,9,3,16,4,21,0.00,1,Thunderstorm,189
2013-6-22,75,72,69,70,69,68,94,90,83,30.11,30.10,30.10,10,10,7,0,0,,0.00,0,,-1
2013-6-23,80,76,71,72,69,66,89,78,61,30.12,30.08,30.03,10,10,10,12,7,17,0.00,4,Thunderstorm,118
2013-6-24,89,79,69,75,71,68,100,75,55,30.14,30.07,30.01,10,10,10,13,5,17,0.00,1,,166
2013-6-25,93,83,73,73,72,70,94,71,49,30.03,29.97,29.85,10,10,2,18,8,23,0.00,1,,195
2013-6-26,89,78,68,75,72,70,94,81,59,29.94,29.84,29.72,10,10,3,22,8,36,0.10,3,Thunderstorm,203
2013-6-27,,,,,,,,,,,,,,,,,,,0.00,,,-1
2013-6-28,,,,,,,,,,,,,,,,,,,,,,
2013-6-29,82,73,64,64,62,59,94,76,48,29.72,29.69,29.64,10,10,9,13,6,23,0.04,2,Thunderstorm,276
2013-6-30,73,65,57,66,62,57,100,86,69,29.88,29.81,29.72,10,10,7,8,3,,0.10,6,Thunderstorm,7